Regional Weather Roundup
Issued by NWS

Home | Current Version | Previous Version | Graphics & Text | Print | Product List | Glossary On
Versions: 1 2 3 4 5 6 7 8 9 10 11 12 13 14 15 16 17 18 19 20 21 22 23 24 25 26 27 28 29 30 31 32 33 34 35 36 37 38 39 40 41 42 43 44 45 46 47 48 49 50
000
ASUS45 KBOI 010110
RWRID
WEATHER ROUNDUP FOR IDAHO
NATIONAL WEATHER SERVICE BOISE ID
700 PM MDT THU JUL 31 2014

NOTE: "FAIR" INDICATES FEW OR NO CLOUDS BELOW 12000 FEET
WITH NO SIGNIFICANT WEATHER AND/OR OBSTRUCTIONS TO VISIBILITY

IDZ012-014-010200-
SOUTHWEST IDAHO


CITY           SKY/WX    TMP DP  RH WIND       PRES   REMARKS
BOISE          PTSUNNY   94  49  21 N14       30.01S HX  90
CALDWELL       PTSUNNY   90  50  25 N15G23    30.02S
MOUNTAIN HOME  PTSUNNY   95  38  13 NE21      30.00S HX  90
$$

IDZ016-017-010200-
SOUTHCENTRAL IDAHO


CITY           SKY/WX    TMP DP  RH WIND       PRES   REMARKS
BURLEY         CLOUDY    84  45  25 N5        30.07F
JEROME         CLOUDY    89  35  14 SE6       30.07F
TWIN FALLS     CLOUDY    88  39  17 SE12      30.09F
$$

IDZ019>023-010200-
SOUTHEAST IDAHO


CITY           SKY/WX    TMP DP  RH WIND       PRES   REMARKS
IDAHO FALLS    MOSUNNY   87  36  16 N6        30.13F
POCATELLO      MOSUNNY   88  41  19 N9        30.11F
REXBURG        MOSUNNY   86  33  15 NE6       30.15F
$$

IDZ006-010-011-018-031-032-010200-
CENTRAL IDAHO MOUNTAINS


CITY           SKY/WX    TMP DP  RH WIND       PRES   REMARKS
MCCALL         CLOUDY    80  41  24 VRB5      30.19S
HAILEY         PTSUNNY   73  50  43 NW8       30.20F THUNDER
STANLEY          N/A     71  42  35 SW3       30.30R
SALMON         PTSUNNY   88  39  18 NE8       30.03S
CHALLIS        CLOUDY    82  41  23 SE16G23   30.15F
$$

IDZ002-004-006-007-026-010200-
NORTHERN IDAHO


CITY           SKY/WX    TMP DP  RH WIND       PRES   REMARKS
LEWISTON       PTSUNNY   99  40  13 W14       29.93S HX  94
LOWELL           N/A     84  61  45 N5        29.93R
COEUR D`ALENE  MOSUNNY   93  34  12 NW6       29.97S
MULLAN PASS    MOSUNNY   76  36  23 VRB6      30.27F
$$


USA.gov is the U.S. government's official web portal to all federal, state and local government web resources and services.